sat.trackr.live / text

‹ back to catalog

STARLINK-2735

NORAD 48667 · 2021-044AF

PAYLOAD ACTIVE UNKNOWN

§ Identity

Operator
Country
US
Launch date
2021-05-26
Launch site
AFETR
Launch vehicle
Mass (kg)
RCS (m²)

Purposes: comms

External: N2YO · Heavens-Above · Gunter

§ Orbital elements

Epoch: 2026-05-25T05:12:33.282432Z

Period
94.15 min
Inclination
53.1598°
Eccentricity
0.0001463
Mean motion
15.29540834 rev/d
Perigee alt
476.2 km
Apogee alt
478.2 km
Semi-major
6,855.3 km
B*
-1.4938e-3
RAAN
118.3958°
Arg perigee
338.3517°
Mean anomaly
21.7422°
Rev number
27,553

§ Raw data

STARLINK-27351 48667U 21044AF  26145.21705188 -.00043455  00000+0 -14938-2 0  99912 48667  53.1598 118.3958 0001463 338.3517  21.7422 15.29540834275534

JSON: /api/v1/satellites/48667 · /tle

For live sub-satellite position, see the globe view (requires WebGL).

§ Visibility from observer

Set your observer location to see the next 7 days of passes ≥ 10°. The values pass through the URL so the page stays shareable.

No JS? Fill the form by hand. The geolocation button needs JavaScript.